CST,Max TemperatureF,Mean TemperatureF,Min TemperatureF,Max Dew PointF,MeanDew PointF,Min DewpointF,Max Humidity, Mean Humidity, Min Humidity, Max Sea Level PressureIn, Mean Sea Level PressureIn, Min Sea Level PressureIn, Max VisibilityMiles, Mean VisibilityMiles, Min VisibilityMiles, Max Wind SpeedMPH, Mean Wind SpeedMPH, Max Gust SpeedMPH,PrecipitationIn, CloudCover, Events, WindDirDegrees
2011-12-1,35,27,18,30,26,13,89,80,50,30.41,30.23,30.09,10,6,1,15,6,23,0.00,6,Snow,1
2011-12-2,33,22,12,23,14,8,88,69,40,30.43,30.35,30.20,10,10,9,13,6,,0.00,1,,195
2011-12-3,35,34,32,34,31,26,96,90,79,30.16,30.01,29.81,8,2,0,14,8,22,0.21,8,Fog-Rain-Snow,178
2011-12-4,34,30,25,31,28,23,93,89,81,30.30,30.04,29.77,10,6,1,14,9,,0.02,8,Rain-Snow,316
2011-12-5,30,26,23,27,22,17,93,82,72,30.43,30.35,30.23,10,10,7,9,5,,0.00,8,,31
2011-12-6,23,21,19,18,16,11,88,81,71,30.41,30.21,30.03,10,10,9,14,6,22,0.00,7,Snow,228
2011-12-7,19,16,12,13,11,8,88,79,71,30.10,30.02,29.93,10,9,7,13,8,20,0.00,4,,257
2011-12-8,23,18,10,15,9,2,84,68,51,30.18,30.13,30.06,10,10,8,15,9,23,0.00,2,,265
2011-12-9,14,8,1,3,-1,-4,76,67,56,30.42,30.31,30.18,10,10,10,12,7,,0.00,0,,267
2011-12-10,24,12,0,16,6,-7,86,73,55,30.43,30.33,30.18,10,9,6,15,7,23,0.00,2,,215
2011-12-11,41,29,17,31,23,14,89,79,55,30.23,30.19,30.15,10,7,3,14,8,17,0.00,2,,210
2011-12-12,36,34,33,34,33,30,93,92,87,30.34,30.26,30.18,5,3,1,13,7,,0.02,8,Rain,201
2011-12-13,37,35,33,34,32,30,96,90,82,30.38,30.31,30.19,5,3,1,7,1,,0.00,8,,104
2011-12-14,37,34,33,36,33,30,100,94,85,30.18,29.81,29.54,5,2,0,12,6,,0.23,8,Fog-Rain-Snow,100
2011-12-15,37,30,21,36,26,13,100,82,61,30.26,29.77,29.53,10,7,2,32,12,40,0.01,7,Rain-Snow,289
2011-12-16,23,20,17,14,13,12,81,73,65,30.41,30.36,30.21,10,10,10,16,8,21,0.00,4,,314
2011-12-17,28,22,15,25,19,11,93,83,77,30.33,30.17,30.06,10,9,6,12,5,16,0.00,6,,235
2011-12-18,44,30,17,33,24,13,89,77,53,30.16,29.93,29.70,10,8,6,14,6,21,0.00,1,,209
2011-12-19,37,32,28,32,25,18,89,74,56,30.26,30.02,29.72,10,10,7,17,9,22,0.00,6,,335
2011-12-20,33,27,21,22,20,17,89,73,59,30.25,30.00,29.79,10,10,4,15,5,,0.00,5,,196
2011-12-21,30,24,17,26,20,12,93,87,75,29.97,29.72,29.65,10,3,0,8,2,,0.00,5,Fog-Snow,243
2011-12-22,28,22,12,24,17,7,82,72,59,30.34,30.20,29.99,10,10,8,14,9,,0.00,5,,333
2011-12-23,26,18,10,22,17,6,86,81,71,30.34,30.13,29.98,10,7,1,17,7,24,0.00,6,Snow,210
2011-12-24,36,24,12,24,15,8,93,80,59,30.23,30.13,29.97,10,5,0,16,2,24,0.00,2,Fog,227
2011-12-25,37,31,25,27,24,21,85,70,64,30.27,30.11,29.93,10,10,10,20,12,28,0.00,4,,280
2011-12-26,45,34,23,27,22,19,88,65,36,30.22,29.93,29.65,10,10,10,23,10,31,0.00,1,,214
2011-12-27,37,26,16,28,18,9,76,68,63,30.06,29.81,29.61,10,10,10,24,12,32,0.00,5,,333
2011-12-28,24,17,10,17,10,6,82,72,60,30.06,29.96,29.71,10,10,9,13,6,,0.00,5,Snow,131
2011-12-29,32,28,23,26,23,18,93,85,75,29.72,29.56,29.44,10,6,1,13,7,,0.01,8,Snow,86
2011-12-30,30,24,18,23,19,14,89,80,67,29.89,29.73,29.62,10,8,6,12,5,,0.00,4,,51
2011-12-31,32,24,16,32,26,12,100,91,84,29.92,29.75,29.61,8,4,1,17,7,24,0.07,6,Rain-Snow,138